QPF
0.00 0.00 0.00 0.00 0.00 0.00 0.00 0.00 0.00 0.00 0.00 0.00 0.00 0.00 0.00 0.00 0.00 0.00 0.00 0.00 0.00 0.00 0.00 0.00 0.00 0.00 0.00 0.00 0.00 0.00 0.00 0.00 0.01 0.01 0.01 0.01 0.01 0.01 0.00 0.00 0.00 0.00 0.00 0.00 0.00 0.00 0.00 0.01 0.01
0.00 0.00 0.00 0.00 0.00 0.00 0.00 0.00 0.00 0.00 0.00 0.00 0.00 0.00 0.00 0.00 0.00 0.00 0.00 0.00 0.00 0.00 0.00 0.00 0.00 0.00 0.00 0.00 0.00 0.00 0.00 0.00 0.01 0.01 0.00 0.00 0.01 0.00 0.00 0.00 0.00 0.00 0.00 0.00 0.00 0.00 0.00 0.00 0.00
0.00 0.00 0.00 0.00 0.00 0.00 0.00 0.00 0.00 0.00 0.00 0.00 0.00 0.00 0.00 0.00 0.00 0.00 0.00 0.00 0.00 0.00 0.00 0.00 0.00 0.00 0.00 0.00 0.00 0.00 0.00 0.00 0.00 0.01 0.00 0.00 0.00 0.00 0.00 0.00 0.00 0.00 0.00 0.00 0.00 0.00 0.00 0.00 0.00
0.00 0.00 0.00 0.00 0.00 0.00 0.00 0.00 0.00 0.00 0.00 0.00 0.00 0.00 0.00 0.00 0.00 0.00 0.00 0.00 0.00 0.00 0.00 0.00 0.00 0.00 0.00 0.00 0.00 0.00 0.00 0.00 0.00 0.00 0.00 0.00 0.00 0.00 0.00 0.00 0.00 0.00 0.00 0.00 0.00 0.00 0.00 0.00 0.00
0.00 0.00 0.00 0.00 0.00 0.00 0.00 0.00 0.00 0.00 0.00 0.00 0.00 0.00 0.00 0.00 0.00 0.00 0.00 0.00 0.00 0.00 0.00 0.00 0.00 0.00 0.00 0.00 0.00 0.00 0.00 0.00 0.00 0.00 0.00 0.00 0.00 0.00 0.00 0.00 0.00 0.00 0.00 0.00 0.00 0.00 0.00 0.00 0.00
0.00 0.00 0.00 0.00 0.00 0.00 0.00 0.00 0.00 0.00 0.00 0.00 0.00 0.00 0.00 0.00 0.00 0.00 0.00 0.00 0.00 0.00 0.00 0.00 0.00 0.00 0.00 0.01 0.01 0.01 0.00 0.00 0.00 0.00 0.00 0.00 0.00 0.00 0.00 0.00 0.00 0.00 0.00 0.00 0.00 0.00 0.00 0.00 0.00
0.00 0.00 0.00 0.00 0.00 0.00 0.00 0.00 0.00 0.00 0.00 0.00 0.00 0.00 0.00 0.00 0.00 0.00 0.00 0.00 0.00 0.00 0.00 0.00 0.00 0.00 0.00 0.01 0.01 0.01 0.01 0.01 0.01 0.00 0.00 0.00 0.00 0.00 0.00 0.00 0.00 0.00 0.00 0.00 0.00 0.00 0.00 0.00 0.00
0.00 0.00 0.00 0.00 0.00 0.00 0.00 0.00 0.00 0.00 0.00 0.00 0.00 0.00 0.00 0.00 0.00 0.00 0.00 0.00 0.00 0.00 0.00 0.00 0.00 0.00 0.00 0.00 0.01 0.01 0.01 0.01 0.01 0.01 0.00 0.00 0.00 0.00 0.00 0.00 0.00 0.00 0.00 0.00 0.00 0.00 0.00 0.00 0.00
0.00 0.00 0.00 0.00 0.00 0.00 0.00 0.00 0.00 0.00 0.00 0.00 0.00 0.00 0.00 0.00 0.00 0.00 0.00 0.00 0.00 0.00 0.00 0.00 0.00 0.00 0.00 0.00 0.00 0.01 0.01 0.01 0.01 0.01 0.00 0.00 0.00 0.00 0.00 0.00 0.00 0.00 0.00 0.00 0.00 0.00 0.00 0.00 0.00
0.00 0.00 0.00 0.00 0.00 0.00 0.00 0.00 0.00 0.00 0.00 0.00 0.00 0.00 0.00 0.00 0.00 0.00 0.00 0.00 0.00 0.00 0.00 0.00 0.00 0.00 0.00 0.00 0.00 0.00 0.00 0.01 0.01 0.00 0.00 0.00 0.00 0.00 0.00 0.00 0.00 0.00 0.00 0.00 0.00 0.00 0.00 0.00 0.00
0.00 0.00 0.00 0.00 0.00 0.00 0.00 0.00 0.00 0.00 0.00 0.00 0.00 0.00 0.00 0.00 0.00 0.00 0.00 0.00 0.00 0.00 0.00 0.00 0.00 0.00 0.00 0.00 0.00 0.00 0.00 0.00 0.00 0.00 0.00 0.00 0.00 0.00 0.00 0.00 0.00 0.00 0.00 0.00 0.00 0.00 0.00 0.00 0.00
0.00 0.00 0.00 0.00 0.00 0.00 0.00 0.00 0.00 0.00 0.00 0.00 0.00 0.00 0.00 0.00 0.00 0.00 0.00 0.00 0.00 0.00 0.00 0.00 0.00 0.00 0.00 0.00 0.00 0.00 0.00 0.00 0.00 0.00 0.00 0.00 0.00 0.00 0.00 0.00 0.00 0.00 0.00 0.00 0.00 0.00 0.00 0.00 0.00
0.00 0.00 0.00 0.00 0.00 0.00 0.00 0.00 0.00 0.00 0.00 0.00 0.00 0.00 0.00 0.00 0.00 0.00 0.00 0.00 0.00 0.00 0.00 0.00 0.00 0.00 0.00 0.00 0.00 0.00 0.00 0.00 0.00 0.00 0.00 0.00 0.00 0.00 0.00 0.00 0.00 0.00 0.00 0.00 0.00 0.00 0.00 0.00 0.00
0.00 0.00 0.00 0.00 0.00 0.00 0.00 0.00 0.00 0.00 0.00 0.00 0.00 0.00 0.00 0.00 0.00 0.00 0.00 0.00 0.00 0.00 0.00 0.00 0.00 0.00 0.00 0.00 0.00 0.00 0.00 0.00 0.00 0.00 0.00 0.00 0.00 0.00 0.00 0.00 0.00 0.00 0.00 0.00 0.00 0.00 0.00 0.00 0.00
0.00 0.00 0.00 0.00 0.00 0.00 0.00 0.00 0.00 0.00 0.00 0.00 0.00 0.00 0.00 0.00 0.00 0.00 0.00 0.00 0.00 0.00 0.00 0.00 0.00 0.00 0.00 0.00 0.00 0.00 0.00 0.00 0.00 0.00 0.00 0.00 0.00 0.00 0.00 0.00 0.00 0.00 0.00 0.00 0.00 0.00 0.00 0.00 0.00
0.00 0.00 0.00 0.00 0.00 0.00 0.00 0.00 0.00 0.00 0.00 0.00 0.00 0.00 0.00 0.00 0.00 0.00 0.00 0.00 0.00 0.00 0.00 0.00 0.00 0.00 0.00 0.00 0.00 0.00 0.00 0.00 0.00 0.00 0.00 0.00 0.00 0.00 0.00 0.00 0.00 0.00 0.00 0.00 0.00 0.00 0.00 0.00 0.00
0.00 0.00 0.00 0.00 0.00 0.00 0.00 0.00 0.00 0.00 0.00 0.00 0.00 0.00 0.00 0.00 0.00 0.00 0.00 0.00 0.00 0.00 0.00 0.00 0.00 0.00 0.00 0.00 0.00 0.00 0.00 0.00 0.00 0.00 0.00 0.00 0.00 0.00 0.00 0.00 0.00 0.00 0.00 0.00 0.00 0.00 0.00 0.00 0.00
0.00 0.00 0.00 0.00 0.00 0.00 0.00 0.00 0.00 0.00 0.00 0.00 0.00 0.00 0.00 0.00 0.00 0.00 0.00 0.00 0.00 0.00 0.00 0.00 0.00 0.00 0.00 0.00 0.00 0.00 0.00 0.00 0.00 0.00 0.00 0.00 0.00 0.00 0.00 0.00 0.00 0.00 0.00 0.00 0.00 0.00 0.00 0.00 0.00
0.00 0.00 0.00 0.00 0.00 0.00 0.00 0.00 0.00 0.00 0.00 0.00 0.00 0.00 0.00 0.00 0.00 0.00 0.00 0.00 0.00 0.00 0.00 0.00 0.00 0.00 0.00 0.00 0.00 0.00 0.00 0.00 0.00 0.00 0.00 0.00 0.00 0.00 0.00 0.00 0.00 0.00 0.00 0.00 0.00 0.00 0.00 0.00 0.00
0.00 0.00 0.00 0.00 0.00 0.00 0.00 0.00 0.00 0.00 0.00 0.00 0.00 0.00 0.00 0.00 0.00 0.00 0.00 0.00 0.00 0.00 0.00 0.00 0.00 0.00 0.00 0.00 0.00 0.00 0.00 0.00 0.00 0.00 0.00 0.00 0.00 0.00 0.00 0.00 0.00 0.00 0.00 0.00 0.00 0.00 0.00 0.00 0.00
0.00 0.00 0.00 0.00 0.00 0.00 0.00 0.00 0.00 0.00 0.00 0.00 0.00 0.00 0.00 0.00 0.00 0.00 0.00 0.00 0.00 0.00 0.00 0.00 0.00 0.00 0.00 0.00 0.00 0.00 0.00 0.00 0.00 0.00 0.00 0.00 0.00 0.00 0.00 0.00 0.00 0.00 0.00 0.00 0.00 0.00 0.00 0.00 0.00
0.00 0.00 0.00 0.00 0.00 0.00 0.00 0.00 0.00 0.00 0.00 0.00 0.00 0.00 0.00 0.00 0.00 0.00 0.00 0.00 0.00 0.00 0.00 0.00 0.00 0.00 0.00 0.00 0.00 0.00 0.00 0.00 0.00 0.00 0.00 0.00 0.00 0.00 0.00 0.00 0.00 0.00 0.00 0.00 0.00 0.00 0.00 0.00 0.00
0.00 0.00 0.00 0.00 0.00 0.00 0.00 0.00 0.00 0.00 0.00 0.00 0.00 0.00 0.00 0.00 0.00 0.00 0.00 0.00 0.00 0.00 0.00 0.00 0.00 0.00 0.00 0.00 0.00 0.00 0.00 0.00 0.00 0.00 0.00 0.00 0.00 0.00 0.00 0.00 0.00 0.00 0.00 0.00 0.00 0.00 0.00 0.00 0.00
0.00 0.00 0.00 0.00 0.00 0.00 0.00 0.00 0.00 0.00 0.00 0.00 0.00 0.00 0.00 0.00 0.00 0.00 0.00 0.00 0.00 0.00 0.00 0.00 0.00 0.00 0.00 0.00 0.00 0.00 0.00 0.00 0.00 0.00 0.00 0.00 0.00 0.00 0.00 0.00 0.00 0.00 0.00 0.00 0.00 0.00 0.00 0.00 0.00
0.00 0.00 0.00 0.00 0.00 0.00 0.00 0.00 0.00 0.00 0.00 0.00 0.00 0.00 0.00 0.00 0.00 0.00 0.00 0.00 0.00 0.00 0.00 0.00 0.00 0.00 0.00 0.00 0.00 0.00 0.00 0.00 0.00 0.00 0.00 0.00 0.00 0.00 0.00 0.00 0.00 0.00 0.00 0.00 0.00 0.00 0.00 0.00 0.00
0.00 0.00 0.00 0.00 0.00 0.00 0.00 0.00 0.00 0.00 0.00 0.00 0.00 0.00 0.00 0.00 0.00 0.00 0.00 0.00 0.00 0.00 0.00 0.00 0.00 0.00 0.00 0.00 0.00 0.00 0.00 0.00 0.00 0.00 0.00 0.00 0.00 0.00 0.00 0.00 0.00 0.00 0.00 0.00 0.00 0.00 0.00 0.00 0.00
0.00 0.00 0.00 0.00 0.00 0.00 0.00 0.00 0.00 0.00 0.00 0.00 0.00 0.00 0.00 0.00 0.00 0.00 0.00 0.00 0.00 0.00 0.00 0.00 0.00 0.00 0.00 0.00 0.00 0.00 0.00 0.00 0.00 0.00 0.00 0.00 0.00 0.00 0.00 0.00 0.00 0.00 0.00 0.00 0.00 0.00 0.00 0.00 0.00
0.00 0.00 0.00 0.00 0.00 0.00 0.00 0.00 0.00 0.00 0.00 0.00 0.00 0.00 0.00 0.00 0.00 0.00 0.00 0.00 0.00 0.00 0.00 0.00 0.00 0.00 0.00 0.00 0.00 0.00 0.00 0.00 0.00 0.00 0.00 0.00 0.00 0.00 0.00 0.00 0.00 0.00 0.00 0.00 0.00 0.00 0.00 0.00 0.00
0.00 0.00 0.00 0.00 0.00 0.00 0.00 0.00 0.00 0.00 0.00 0.00 0.00 0.00 0.00 0.00 0.00 0.00 0.00 0.00 0.00 0.00 0.00 0.00 0.00 0.00 0.00 0.00 0.00 0.00 0.00 0.00 0.00 0.00 0.00 0.00 0.00 0.00 0.00 0.00 0.00 0.00 0.00 0.00 0.00 0.00 0.00 0.00 0.00
0.00 0.00 0.00 0.00 0.00 0.00 0.00 0.00 0.00 0.00 0.00 0.00 0.00 0.00 0.00 0.00 0.00 0.00 0.00 0.00 0.00 0.00 0.00 0.00 0.00 0.00 0.00 0.00 0.00 0.00 0.00 0.00 0.00 0.00 0.00 0.00 0.00 0.00 0.00 0.00 0.00 0.00 0.00 0.00 0.00 0.00 0.00 0.00 0.00
MSLP
1013.33 1013.94 1014.64 1015.33 1015.88 1016.23 1016.33 1016.19 1015.88 1015.47 1015.07 1014.77 1014.60 1014.58 1014.68 1014.85 1015.04 1015.20 1015.31 1015.40 1015.49 1015.64 1015.90 1016.28 1016.77 1017.33 1017.91 1018.44 1018.89 1019.23 1019.47 1019.65 1019.83 1020.04 1020.31 1020.64 1021.01 1021.38 1021.71 1021.96 1022.10 1022.16 1022.15 1022.10 1022.06 1022.05 1022.06 1022.11 1022.15
1013.55 1014.24 1014.96 1015.60 1016.06 1016.26 1016.20 1015.91 1015.47 1014.97 1014.53 1014.20 1014.05 1014.05 1014.17 1014.35 1014.53 1014.68 1014.79 1014.88 1014.99 1015.19 1015.51 1015.97 1016.55 1017.19 1017.85 1018.44 1018.94 1019.33 1019.62 1019.85 1020.07 1020.32 1020.62 1020.97 1021.34 1021.71 1022.01 1022.23 1022.35 1022.39 1022.38 1022.35 1022.34 1022.36 1022.41 1022.49 1022.56
1013.83 1014.54 1015.22 1015.77 1016.08 1016.12 1015.90 1015.47 1014.93 1014.38 1013.92 1013.62 1013.50 1013.55 1013.70 1013.91 1014.10 1014.25 1014.36 1014.46 1014.61 1014.86 1015.24 1015.76 1016.41 1017.12 1017.82 1018.46 1019.00 1019.42 1019.74 1020.01 1020.25 1020.53 1020.85 1021.20 1021.57 1021.90 1022.17 1022.35 1022.45 1022.48 1022.47 1022.47 1022.49 1022.56 1022.66 1022.77 1022.87
1014.17 1014.84 1015.42 1015.82 1015.97 1015.85 1015.49 1014.96 1014.37 1013.81 1013.38 1013.14 1013.09 1013.18 1013.38 1013.61 1013.81 1013.96 1014.08 1014.21 1014.39 1014.68 1015.11 1015.69 1016.38 1017.12 1017.85 1018.50 1019.05 1019.47 1019.81 1020.09 1020.35 1020.64 1020.97 1021.32 1021.66 1021.97 1022.21 1022.37 1022.44 1022.47 1022.48 1022.51 1022.58 1022.70 1022.85 1023.00 1023.13
1014.50 1015.10 1015.56 1015.80 1015.80 1015.54 1015.07 1014.49 1013.89 1013.38 1013.02 1012.86 1012.87 1013.03 1013.25 1013.49 1013.69 1013.84 1013.96 1014.10 1014.31 1014.63 1015.11 1015.72 1016.43 1017.18 1017.90 1018.54 1019.07 1019.49 1019.81 1020.09 1020.36 1020.65 1020.98 1021.33 1021.66 1021.95 1022.17 1022.31 1022.39 1022.44 1022.48 1022.56 1022.68 1022.85 1023.04 1023.23 1023.38
1014.80 1015.29 1015.62 1015.72 1015.58 1015.23 1014.71 1014.14 1013.59 1013.15 1012.89 1012.81 1012.89 1013.08 1013.32 1013.55 1013.73 1013.85 1013.96 1014.10 1014.33 1014.68 1015.18 1015.81 1016.53 1017.27 1017.97 1018.57 1019.07 1019.45 1019.76 1020.02 1020.29 1020.59 1020.92 1021.26 1021.60 1021.88 1022.11 1022.26 1022.36 1022.43 1022.52 1022.64 1022.81 1023.02 1023.25 1023.46 1023.62
1015.01 1015.40 1015.60 1015.58 1015.36 1014.96 1014.46 1013.93 1013.47 1013.14 1012.98 1012.98 1013.11 1013.31 1013.53 1013.71 1013.84 1013.93 1014.01 1014.15 1014.38 1014.75 1015.27 1015.91 1016.62 1017.33 1018.00 1018.57 1019.02 1019.38 1019.66 1019.92 1020.19 1020.49 1020.83 1021.19 1021.53 1021.83 1022.07 1022.25 1022.37 1022.48 1022.61 1022.77 1022.97 1023.21 1023.45 1023.67 1023.83
1015.11 1015.40 1015.50 1015.41 1015.14 1014.75 1014.30 1013.87 1013.52 1013.30 1013.23 1013.28 1013.43 1013.61 1013.77 1013.89 1013.96 1013.99 1014.04 1014.16 1014.39 1014.77 1015.30 1015.94 1016.64 1017.34 1017.97 1018.51 1018.94 1019.27 1019.55 1019.81 1020.09 1020.41 1020.77 1021.14 1021.50 1021.82 1022.08 1022.28 1022.43 1022.57 1022.72 1022.90 1023.12 1023.36 1023.60 1023.81 1023.96
1015.09 1015.30 1015.33 1015.20 1014.94 1014.59 1014.22 1013.90 1013.66 1013.54 1013.53 1013.61 1013.74 1013.87 1013.97 1014.01 1013.99 1013.97 1013.98 1014.09 1014.32 1014.71 1015.24 1015.88 1016.57 1017.26 1017.88 1018.40 1018.81 1019.15 1019.44 1019.71 1020.02 1020.36 1020.74 1021.13 1021.51 1021.85 1022.12 1022.33 1022.50 1022.65 1022.80 1022.98 1023.18 1023.41 1023.63 1023.82 1023.96
1014.99 1015.13 1015.12 1014.97 1014.73 1014.45 1014.18 1013.95 1013.81 1013.76 1013.79 1013.87 1013.96 1014.02 1014.04 1014.00 1013.93 1013.85 1013.84 1013.93 1014.17 1014.56 1015.09 1015.73 1016.42 1017.10 1017.71 1018.24 1018.67 1019.02 1019.33 1019.65 1019.98 1020.35 1020.75 1021.16 1021.54 1021.88 1022.16 1022.36 1022.52 1022.66 1022.79 1022.94 1023.12 1023.32 1023.51 1023.67 1023.80
1014.87 1014.95 1014.90 1014.75 1014.55 1014.32 1014.13 1013.98 1013.90 1013.89 1013.93 1013.99 1014.03 1014.03 1013.98 1013.88 1013.76 1013.66 1013.63 1013.72 1013.96 1014.35 1014.89 1015.52 1016.21 1016.88 1017.50 1018.04 1018.50 1018.89 1019.24 1019.59 1019.95 1020.35 1020.76 1021.17 1021.55 1021.88 1022.14 1022.32 1022.46 1022.56 1022.66 1022.77 1022.91 1023.07 1023.22 1023.37 1023.47
1014.77 1014.80 1014.71 1014.56 1014.38 1014.20 1014.05 1013.95 1013.91 1013.91 1013.93 1013.95 1013.95 1013.90 1013.81 1013.68 1013.55 1013.45 1013.42 1013.52 1013.76 1014.15 1014.68 1015.30 1015.97 1016.64 1017.27 1017.84 1018.33 1018.76 1019.15 1019.53 1019.92 1020.33 1020.73 1021.13 1021.49 1021.80 1022.03 1022.19 1022.29 1022.36 1022.41 1022.49 1022.58 1022.69 1022.82 1022.94 1023.03
1014.76 1014.72 1014.60 1014.43 1014.25 1014.09 1013.96 1013.87 1013.83 1013.81 1013.80 1013.79 1013.76 1013.69 1013.59 1013.48 1013.37 1013.29 1013.29 1013.40 1013.64 1014.02 1014.52 1015.11 1015.76 1016.42 1017.06 1017.64 1018.17 1018.63 1019.06 1019.46 1019.86 1020.26 1020.65 1021.02 1021.35 1021.62 1021.82 1021.95 1022.03 1022.07 1022.09 1022.13 1022.19 1022.27 1022.37 1022.47 1022.55
1014.84 1014.74 1014.57 1014.38 1014.18 1014.01 1013.87 1013.77 1013.69 1013.64 1013.61 1013.57 1013.53 1013.48 1013.42 1013.35 1013.29 1013.27 1013.30 1013.42 1013.65 1014.00 1014.45 1015.00 1015.62 1016.26 1016.89 1017.49 1018.04 1018.53 1018.97 1019.38 1019.76 1020.13 1020.49 1020.82 1021.11 1021.36 1021.53 1021.65 1021.72 1021.75 1021.76 1021.78 1021.81 1021.88 1021.96 1022.04 1022.11
1014.98 1014.83 1014.62 1014.40 1014.18 1013.99 1013.82 1013.67 1013.56 1013.47 1013.41 1013.37 1013.35 1013.34 1013.35 1013.36 1013.38 1013.41 1013.48 1013.61 1013.81 1014.10 1014.50 1014.99 1015.56 1016.17 1016.79 1017.39 1017.95 1018.45 1018.90 1019.29 1019.64 1019.97 1020.27 1020.56 1020.81 1021.03 1021.21 1021.33 1021.41 1021.45 1021.47 1021.50 1021.53 1021.58 1021.65 1021.72 1021.77
1015.15 1014.96 1014.73 1014.49 1014.26 1014.03 1013.82 1013.63 1013.46 1013.33 1013.25 1013.22 1013.25 1013.31 1013.40 1013.51 1013.61 1013.71 1013.81 1013.93 1014.09 1014.33 1014.65 1015.08 1015.59 1016.17 1016.78 1017.38 1017.94 1018.44 1018.87 1019.23 1019.53 1019.80 1020.04 1020.27 1020.49 1020.69 1020.87 1021.02 1021.13 1021.21 1021.27 1021.32 1021.36 1021.41 1021.47 1021.52 1021.54
1015.28 1015.09 1014.87 1014.63 1014.39 1014.14 1013.89 1013.64 1013.43 1013.26 1013.17 1013.16 1013.23 1013.38 1013.57 1013.77 1013.97 1014.12 1014.25 1014.35 1014.47 1014.64 1014.89 1015.25 1015.71 1016.26 1016.85 1017.45 1018.01 1018.50 1018.90 1019.21 1019.45 1019.65 1019.83 1020.00 1020.18 1020.38 1020.57 1020.75 1020.91 1021.05 1021.15 1021.23 1021.29 1021.35 1021.40 1021.42 1021.42
1015.33 1015.17 1014.99 1014.79 1014.56 1014.29 1014.01 1013.72 1013.45 1013.24 1013.13 1013.14 1013.27 1013.50 1013.79 1014.10 1014.37 1014.59 1014.73 1014.82 1014.90 1015.01 1015.19 1015.49 1015.91 1016.42 1017.01 1017.60 1018.16 1018.63 1019.00 1019.26 1019.44 1019.56 1019.66 1019.78 1019.92 1020.10 1020.31 1020.53 1020.74 1020.92 1021.07 1021.18 1021.27 1021.33 1021.37 1021.38 1021.36
1015.28 1015.20 1015.09 1014.95 1014.75 1014.48 1014.16 1013.82 1013.49 1013.24 1013.11 1013.14 1013.31 1013.62 1014.00 1014.41 1014.76 1015.03 1015.20 1015.29 1015.33 1015.39 1015.52 1015.77 1016.15 1016.65 1017.22 1017.82 1018.37 1018.83 1019.16 1019.37 1019.48 1019.53 1019.56 1019.62 1019.72 1019.89 1020.10 1020.34 1020.59 1020.81 1020.99 1021.12 1021.22 1021.28 1021.31 1021.32 1021.28
1015.15 1015.18 1015.18 1015.11 1014.94 1014.68 1014.32 1013.92 1013.53 1013.22 1013.06 1013.08 1013.29 1013.66 1014.13 1014.63 1015.07 1015.40 1015.61 1015.70 1015.73 1015.76 1015.86 1016.07 1016.43 1016.91 1017.48 1018.06 1018.61 1019.05 1019.35 1019.51 1019.56 1019.55 1019.51 1019.51 1019.58 1019.72 1019.93 1020.17 1020.43 1020.66 1020.85 1020.99 1021.08 1021.14 1021.17 1021.17 1021.13
1014.99 1015.15 1015.25 1015.26 1015.13 1014.85 1014.45 1013.97 1013.50 1013.12 1012.92 1012.93 1013.16 1013.58 1014.13 1014.72 1015.24 1015.65 1015.91 1016.04 1016.08 1016.10 1016.18 1016.37 1016.70 1017.17 1017.72 1018.29 1018.82 1019.24 1019.52 1019.64 1019.65 1019.58 1019.50 1019.46 1019.48 1019.59 1019.78 1020.01 1020.25 1020.46 1020.64 1020.76 1020.84 1020.88 1020.89 1020.89 1020.87
1014.85 1015.13 1015.33 1015.40 1015.29 1014.99 1014.53 1013.97 1013.40 1012.94 1012.67 1012.65 1012.90 1013.36 1013.98 1014.65 1015.27 1015.77 1016.11 1016.29 1016.36 1016.40 1016.47 1016.65 1016.95 1017.39 1017.92 1018.46 1018.97 1019.36 1019.61 1019.72 1019.70 1019.61 1019.50 1019.43 1019.42 1019.50 1019.65 1019.85 1020.05 1020.23 1020.36 1020.44 1020.48 1020.50 1020.50 1020.50 1020.49
1014.76 1015.13 1015.41 1015.53 1015.42 1015.08 1014.54 1013.88 1013.21 1012.66 1012.33 1012.27 1012.51 1013.01 1013.69 1014.45 1015.17 1015.76 1016.18 1016.44 1016.57 1016.63 1016.71 1016.87 1017.15 1017.55 1018.03 1018.54 1019.00 1019.37 1019.61 1019.71 1019.69 1019.60 1019.49 1019.41 1019.39 1019.45 1019.56 1019.71 1019.85 1019.97 1020.05 1020.07 1020.07 1020.05 1020.03 1020.02 1020.03
1014.70 1015.15 1015.48 1015.61 1015.48 1015.09 1014.47 1013.72 1012.96 1012.32 1011.92 1011.82 1012.05 1012.57 1013.30 1014.13 1014.93 1015.62 1016.14 1016.48 1016.68 1016.79 1016.88 1017.03 1017.28 1017.62 1018.05 1018.50 1018.93 1019.27 1019.50 1019.61 1019.61 1019.55 1019.46 1019.40 1019.39 1019.43 1019.51 1019.61 1019.69 1019.74 1019.74 1019.70 1019.64 1019.57 1019.52 1019.50 1019.50
1014.64 1015.14 1015.49 1015.62 1015.46 1015.01 1014.32 1013.49 1012.65 1011.94 1011.48 1011.35 1011.56 1012.08 1012.84 1013.71 1014.59 1015.37 1015.98 1016.41 1016.67 1016.84 1016.96 1017.10 1017.32 1017.61 1017.98 1018.38 1018.76 1019.08 1019.31 1019.44 1019.48 1019.47 1019.43 1019.41 1019.41 1019.45 1019.50 1019.55 1019.57 1019.54 1019.47 1019.36 1019.24 1019.12 1019.03 1018.98 1018.97
1014.52 1015.05 1015.40 1015.50 1015.31 1014.82 1014.09 1013.21 1012.33 1011.57 1011.07 1010.89 1011.08 1011.58 1012.34 1013.24 1014.16 1015.00 1015.69 1016.20 1016.54 1016.77 1016.92 1017.08 1017.28 1017.53 1017.85 1018.20 1018.54 1018.84 1019.08 1019.24 1019.33 1019.38 1019.40 1019.42 1019.45 1019.49 1019.51 1019.51 1019.47 1019.38 1019.24 1019.06 1018.88 1018.71 1018.58 1018.49 1018.45
1014.29 1014.81 1015.15 1015.24 1015.02 1014.52 1013.77 1012.88 1011.99 1011.22 1010.69 1010.49 1010.63 1011.10 1011.83 1012.72 1013.65 1014.52 1015.27 1015.85 1016.27 1016.57 1016.79 1016.97 1017.18 1017.42 1017.70 1018.02 1018.33 1018.62 1018.87 1019.06 1019.20 1019.30 1019.38 1019.44 1019.49 1019.52 1019.52 1019.47 1019.38 1019.22 1019.02 1018.79 1018.55 1018.34 1018.16 1018.04 1017.95
1013.92 1014.42 1014.73 1014.80 1014.58 1014.08 1013.36 1012.50 1011.64 1010.89 1010.36 1010.13 1010.24 1010.65 1011.33 1012.16 1013.07 1013.95 1014.73 1015.38 1015.89 1016.27 1016.56 1016.81 1017.05 1017.31 1017.59 1017.88 1018.18 1018.46 1018.72 1018.93 1019.11 1019.25 1019.36 1019.44 1019.50 1019.51 1019.48 1019.38 1019.23 1019.02 1018.76 1018.49 1018.22 1017.97 1017.76 1017.60 1017.47
1013.42 1013.88 1014.15 1014.20 1013.98 1013.51 1012.85 1012.06 1011.26 1010.56 1010.06 1009.83 1009.89 1010.24 1010.83 1011.60 1012.45 1013.31 1014.12 1014.82 1015.41 1015.89 1016.29 1016.63 1016.93 1017.23 1017.53 1017.84 1018.13 1018.40 1018.65 1018.88 1019.06 1019.21 1019.33 1019.41 1019.44 1019.42 1019.34 1019.20 1018.99 1018.73 1018.43 1018.13 1017.83 1017.57 1017.35 1017.16 1017.00
1012.83 1013.22 1013.45 1013.47 1013.26 1012.84 1012.24 1011.55 1010.84 1010.22 1009.76 1009.53 1009.56 1009.84 1010.35 1011.04 1011.83 1012.66 1013.48 1014.23 1014.91 1015.50 1016.01 1016.46 1016.86 1017.22 1017.56 1017.87 1018.17 1018.43 1018.67 1018.87 1019.04 1019.17 1019.26 1019.31 1019.30 1019.23 1019.09 1018.89 1018.63 1018.33 1018.00 1017.68 1017.38 1017.12 1016.89 1016.70 1016.52
Thickness
5747 5749 5750 5741 5720 5710 5712 5729 5738 5736 5739 5744 5745 5742 5738 5734 5726 5716 5737 5746 5744 5737 5729 5724 5720 5716 5713 5710 5707 5704 5702 5700 5698 5697 5695 5693 5691 5690 5688 5687 5687 5686 5685 5685 5685 5685 5685 5685 5685
5749 5753 5746 5731 5711 5700 5716 5733 5735 5737 5742 5746 5746 5744 5741 5739 5745 5737 5739 5744 5742 5735 5728 5723 5718 5714 5711 5707 5704 5701 5699 5696 5694 5692 5690 5689 5687 5685 5684 5682 5681 5680 5680 5679 5679 5679 5679 5679 5679
5750 5753 5736 5723 5712 5709 5721 5736 5738 5743 5747 5745 5743 5747 5744 5741 5747 5742 5742 5743 5740 5734 5727 5722 5716 5712 5708 5705 5702 5698 5696 5693 5691 5688 5686 5684 5683 5681 5679 5677 5676 5675 5674 5674 5673 5673 5673 5673 5673
5749 5741 5735 5722 5717 5731 5737 5741 5742 5741 5744 5745 5742 5741 5748 5751 5749 5744 5744 5742 5738 5732 5726 5720 5715 5710 5707 5703 5699 5696 5693 5690 5687 5685 5683 5680 5678 5676 5674 5673 5671 5670 5669 5669 5668 5668 5668 5667 5668
5746 5734 5719 5714 5724 5741 5748 5748 5744 5737 5740 5744 5742 5738 5738 5746 5749 5745 5743 5741 5736 5731 5726 5718 5713 5708 5704 5700 5697 5693 5690 5687 5684 5681 5679 5677 5674 5672 5670 5668 5667 5665 5665 5664 5664 5663 5663 5662 5662
5734 5731 5714 5711 5727 5743 5749 5751 5745 5738 5742 5745 5741 5737 5733 5743 5743 5742 5741 5739 5737 5731 5725 5716 5711 5706 5702 5698 5694 5690 5687 5684 5681 5678 5675 5673 5671 5668 5666 5664 5662 5661 5660 5659 5659 5658 5658 5657 5657
5727 5721 5714 5721 5729 5736 5745 5751 5742 5737 5737 5742 5746 5735 5733 5735 5739 5741 5740 5738 5735 5730 5723 5714 5709 5704 5699 5695 5691 5687 5684 5680 5677 5674 5672 5669 5667 5665 5662 5660 5658 5657 5656 5655 5654 5653 5653 5652 5652
5734 5723 5717 5721 5725 5731 5745 5746 5744 5737 5734 5747 5746 5732 5727 5730 5738 5738 5736 5734 5731 5727 5722 5713 5706 5701 5696 5692 5688 5684 5680 5677 5674 5671 5668 5665 5663 5661 5659 5656 5654 5653 5651 5650 5650 5649 5648 5648 5648
5735 5712 5706 5719 5724 5731 5743 5739 5742 5745 5738 5739 5744 5740 5734 5735 5735 5731 5728 5725 5724 5722 5719 5712 5705 5699 5694 5689 5684 5680 5677 5673 5670 5667 5664 5661 5659 5657 5655 5653 5651 5649 5647 5646 5645 5645 5644 5644 5644
5723 5702 5711 5729 5732 5731 5735 5734 5735 5734 5729 5731 5736 5739 5737 5733 5730 5726 5722 5719 5717 5715 5714 5712 5705 5698 5692 5687 5682 5677 5673 5670 5666 5663 5660 5657 5655 5653 5651 5649 5647 5645 5643 5642 5641 5641 5640 5640 5640
5722 5712 5721 5730 5734 5730 5726 5727 5732 5725 5718 5724 5725 5728 5730 5729 5727 5725 5723 5722 5719 5715 5711 5709 5705 5698 5691 5685 5680 5675 5670 5667 5663 5660 5657 5654 5651 5649 5647 5645 5642 5640 5639 5638 5637 5637 5636 5636 5637
5719 5720 5726 5727 5729 5724 5720 5722 5722 5723 5724 5731 5731 5730 5728 5725 5724 5723 5723 5723 5720 5715 5709 5706 5703 5696 5689 5683 5677 5672 5668 5664 5660 5657 5653 5650 5648 5645 5643 5640 5638 5636 5635 5634 5633 5632 5632 5632 5632
5714 5716 5724 5727 5724 5720 5718 5715 5715 5720 5728 5731 5730 5727 5724 5722 5722 5724 5723 5722 5719 5713 5707 5703 5699 5693 5687 5680 5674 5670 5665 5660 5656 5653 5649 5646 5644 5641 5638 5636 5634 5632 5631 5630 5629 5628 5627 5627 5627
5712 5713 5716 5720 5719 5719 5713 5713 5713 5720 5726 5724 5722 5720 5719 5718 5718 5718 5717 5716 5714 5710 5704 5699 5695 5690 5683 5677 5671 5666 5662 5658 5653 5649 5645 5642 5639 5636 5634 5632 5630 5628 5627 5625 5624 5623 5622 5622 5622
5707 5700 5705 5714 5717 5717 5710 5702 5711 5721 5722 5717 5716 5715 5714 5714 5714 5712 5711 5711 5710 5706 5702 5695 5690 5686 5679 5673 5668 5663 5659 5654 5650 5646 5642 5638 5635 5632 5630 5627 5625 5623 5622 5620 5619 5618 5617 5617 5616
5697 5691 5689 5712 5714 5709 5696 5689 5715 5720 5715 5711 5712 5710 5708 5707 5707 5706 5707 5706 5706 5702 5696 5691 5686 5681 5675 5669 5664 5659 5655 5651 5646 5642 5638 5634 5631 5628 5625 5623 5620 5618 5617 5615 5614 5612 5610 5610 5609
5684 5680 5687 5701 5709 5705 5693 5691 5707 5714 5710 5706 5707 5706 5702 5699 5699 5700 5700 5700 5699 5695 5690 5684 5679 5675 5670 5665 5659 5654 5650 5645 5641 5636 5633 5629 5626 5623 5620 5618 5615 5613 5611 5610 5608 5606 5604 5603 5602
5676 5682 5689 5693 5701 5699 5690 5691 5702 5709 5706 5703 5703 5701 5696 5692 5690 5692 5693 5693 5691 5688 5683 5677 5673 5669 5664 5659 5653 5647 5642 5638 5634 5630 5626 5623 5620 5617 5615 5612 5610 5607 5605 5603 5601 5600 5598 5597 5596
5680 5676 5675 5686 5697 5692 5686 5688 5699 5705 5702 5699 5698 5694 5689 5685 5686 5686 5685 5684 5682 5679 5675 5670 5665 5661 5656 5650 5644 5638 5633 5630 5627 5624 5620 5617 5614 5612 5609 5606 5604 5601 5599 5597 5595 5593 5592 5590 5588
5672 5665 5668 5680 5692 5686 5681 5686 5699 5703 5700 5699 5695 5690 5685 5680 5678 5678 5677 5675 5673 5669 5666 5662 5658 5653 5648 5643 5638 5633 5628 5624 5621 5618 5615 5612 5609 5607 5604 5601 5599 5596 5593 5591 5589 5587 5584 5583 5580
5663 5660 5664 5670 5680 5681 5673 5674 5691 5697 5698 5697 5694 5689 5683 5677 5673 5671 5669 5666 5663 5660 5657 5654 5650 5645 5640 5635 5630 5625 5620 5616 5613 5610 5608 5606 5604 5602 5599 5596 5594 5591 5588 5585 5583 5581 5578 5575 5573
5655 5670 5671 5667 5659 5659 5668 5654 5684 5685 5683 5685 5684 5682 5678 5674 5670 5666 5662 5658 5654 5651 5649 5646 5641 5637 5632 5628 5622 5618 5613 5609 5607 5604 5602 5601 5599 5596 5593 5590 5587 5584 5582 5579 5577 5575 5571 5567 5563
5661 5665 5664 5660 5652 5648 5661 5653 5672 5680 5672 5674 5677 5676 5673 5669 5664 5660 5655 5651 5647 5644 5641 5637 5633 5628 5624 5620 5615 5611 5606 5603 5601 5598 5596 5594 5592 5590 5586 5583 5580 5577 5574 5571 5569 5566 5563 5559 5555
5660 5655 5652 5649 5641 5633 5659 5651 5664 5675 5679 5675 5674 5672 5668 5664 5659 5653 5649 5645 5640 5636 5633 5629 5625 5620 5616 5612 5607 5602 5598 5595 5592 5589 5587 5584 5583 5581 5579 5576 5572 5569 5566 5563 5560 5557 5554 5550 5546
5647 5636 5627 5623 5619 5631 5670 5662 5670 5693 5694 5685 5677 5671 5665 5659 5653 5647 5642 5638 5633 5629 5626 5622 5617 5612 5608 5604 5599 5595 5591 5587 5584 5581 5578 5575 5573 5571 5569 5567 5563 5560 5557 5554 5551 5548 5544 5540 5535
5636 5637 5627 5625 5630 5646 5651 5652 5673 5688 5691 5689 5681 5671 5662 5655 5648 5643 5638 5633 5628 5624 5620 5615 5610 5605 5600 5596 5591 5587 5584 5579 5576 5573 5570 5567 5564 5562 5560 5557 5554 5551 5548 5545 5541 5538 5534 5530 5525
5637 5634 5646 5633 5636 5633 5647 5665 5668 5680 5676 5676 5672 5665 5657 5651 5645 5639 5634 5628 5623 5618 5614 5609 5603 5597 5592 5588 5583 5579 5575 5572 5568 5565 5562 5559 5556 5554 5551 5547 5544 5541 5538 5534 5530 5526 5523 5519 5514
5640 5643 5631 5622 5617 5618 5644 5655 5657 5658 5661 5664 5663 5658 5652 5647 5641 5635 5629 5623 5618 5612 5607 5601 5596 5590 5584 5579 5575 5571 5567 5563 5560 5556 5553 5550 5547 5544 5541 5537 5534 5531 5527 5524 5519 5515 5511 5506 5502
5627 5629 5632 5630 5632 5621 5624 5645 5667 5666 5664 5659 5658 5656 5650 5644 5638 5631 5624 5617 5611 5604 5598 5592 5587 5581 5575 5570 5566 5561 5557 5554 5550 5547 5544 5541 5537 5534 5530 5527 5523 5520 5516 5512 5507 5502 5497 5492 5487
5634 5632 5629 5619 5624 5629 5621 5635 5666 5667 5666 5660 5655 5652 5648 5641 5634 5626 5618 5610 5603 5596 5590 5583 5578 5572 5566 5561 5556 5552 5548 5544 5540 5537 5533 5530 5526 5523 5519 5515 5511 5507 5503 5498 5493 5488 5483 5476 5470